Weather in Peksha

Russia / Vladimir Oblast     55°57′51″N   39°42′00″E
temp.,
°C
wind,
m/s
gust,
m/s
humid.,
%
clouds,
%
prec.,
mm/h
press.,
hPa
HPBL,
m
6 august, fri
fri600:00+15ene398486 0.1 1015238
03:00+14e249091 0.2 101379
06:00+15ssw2485100 0.1 1013121
09:00+19s366997 0.2 1013421
12:00+17se278386 0.1 1014246
15:00+18ese1192100 1.3 101338
18:00+17ene3898100 4.3 1012262
21:00+16ene41197100 4.4 1012337
7 august, sat
sat700:00+16ene4119537 0.0 1011351
03:00+15e389876 0.0 1010226
06:00+16e259783 0.6 1011144
09:00+20sse477866 1.5 1011452
12:00+27s475035 0.6 1011959
15:00+23sw2760100 0.6 1011148
18:00+27ese1253100 0.0 101053
21:00+19e2282100 0.5 101217
8 august, sun
sun800:00+19ese3977100 0.0 1012197
03:00+21sse4145893 0.0 1012460
06:00+19sse21064100 0.0 1013267
09:00+22ssw355599 0.0 1014392
12:00+23wsw2367100 0.0 1015600
15:00+24sw2366100 0.0 1015566
18:00+23w3662100 0.0 1016338
21:00+18sw11766 0.0 101711
9 august, mon
mon900:00+17w11780 0.0 101811
03:00+16w22820 0.0 101812
06:00+17sw11845 0.0 101917
09:00+23w126128 0.0 1019489
12:00+27wsw34445 0.0 10191404
15:00+29w34380 0.0 10191659
18:00+27wnw12502 0.0 101896
21:00+21nne1162100 0.1 101911
10 august, tue
tue1000:00+19s1182100 0.7 101911
03:00+18ne2292100 3.1 102034
06:00+19se2291100 0.1 101937
09:00+20e1187100 0.1 101933
12:00+23s1173100 1.6 1019162
15:00+19sw4892100 3.3 1020310
18:00+18ene1196100 2.2 101928
21:00+17e1397100 2.9 101895